| time (UTC) | temp F | wind direction | speed MPH | gust MPH | rain 1hr in | rain 24hr in | rain mn in | humidity % | barometer mb |
| 20260503041006 | 53 | 336 | 4.0 | 10.0 | 0.00 | 0.00 | 0.00 | 55 | 1011.6 |
| 20260503040505 | 52 | 333 | 3.0 | 12.0 | 0.00 | 0.00 | 0.00 | 56 | 1011.5 |
| 20260503040010 | 52 | 320 | 3.0 | 12.0 | 0.00 | 0.00 | 0.00 | 56 | 1011.7 |
| 20260503035504 | 52 | 331 | 3.0 | 8.0 | 0.00 | 0.00 | 0.00 | 58 | 1011.8 |
| 20260503035006 | 52 | 318 | 3.0 | 8.0 | 0.00 | 0.00 | 0.00 | 57 | 1011.8 |
| 20260503034505 | 52 | 329 | 3.0 | 8.0 | 0.00 | 0.00 | 0.00 | 57 | 1011.8 |
| 20260503033504 | 53 | 326 | 4.0 | 8.0 | 0.00 | 0.00 | 0.00 | 56 | 1011.6 |
| 20260503033007 | 52 | 328 | 3.0 | 9.0 | 0.00 | 0.00 | 0.00 | 59 | 1011.7 |
| 20260503032505 | 52 | 360 | 3.0 | 9.0 | 0.00 | 0.00 | 0.00 | 57 | 1011.7 |
| 20260503032005 | 53 | 343 | 3.0 | 5.0 | 0.00 | 0.00 | 0.00 | 57 | 1011.7 |
| 20260503031005 | 53 | 350 | 4.0 | 10.0 | 0.00 | 0.00 | 0.00 | 56 | 1011.8 |
| 20260503030504 | 53 | 333 | 4.0 | 9.0 | 0.00 | 0.00 | 0.00 | 55 | 1011.8 |
| 20260503030009 | 53 | 336 | 4.0 | 11.0 | 0.00 | 0.00 | 0.00 | 56 | 1011.9 |
| 20260503025504 | 53 | 5 | 3.0 | 11.0 | 0.00 | 0.00 | 0.00 | 55 | 1011.9 |
| 20260503025007 | 53 | 337 | 4.0 | 9.0 | 0.00 | 0.00 | 0.00 | 57 | 1012.0 |
| 20260503024505 | 53 | 334 | 4.0 | 9.0 | 0.00 | 0.00 | 0.00 | 54 | 1012.0 |
| 20260503024004 | 53 | 328 | 4.0 | 9.0 | 0.00 | 0.00 | 0.00 | 57 | 1011.8 |
| 20260503023505 | 53 | 317 | 3.0 | 9.0 | 0.00 | 0.00 | 0.00 | 55 | 1011.9 |
| 20260503023007 | 53 | 338 | 4.0 | 9.0 | 0.00 | 0.00 | 0.00 | 56 | 1011.6 |
| 20260503022505 | 53 | 360 | 3.0 | 9.0 | 0.00 | 0.00 | 0.00 | 56 | 1011.6 |
| 20260503022005 | 53 | 16 | 3.0 | 6.0 | 0.00 | 0.00 | 0.00 | 58 | 1011.7 |
| 20260503021504 | 53 | 340 | 3.0 | 6.0 | 0.00 | 0.00 | 0.00 | 56 | 1011.6 |
| 20260503021007 | 53 | 340 | 4.0 | 6.0 | 0.00 | 0.00 | 0.00 | 56 | 1011.5 |
| 20260503020006 | 53 | 350 | 2.0 | 4.0 | 0.00 | 0.00 | 0.00 | 59 | 1011.7 |
| 20260503015504 | 53 | 350 | 1.0 | 3.0 | 0.00 | 0.00 | 0.00 | 57 | 1011.7 |
| 20260503015005 | 53 | 350 | 1.0 | 3.0 | 0.00 | 0.00 | 0.00 | 57 | 1011.8 |
| 20260503014504 | 52 | 350 | 1.0 | 3.0 | 0.00 | 0.00 | 0.00 | 59 | 1011.7 |
| 20260503014005 | 52 | 350 | 1.0 | 4.0 | 0.00 | 0.00 | 0.00 | 60 | 1011.6 |
| 20260503013503 | 53 | 350 | 1.0 | 4.0 | 0.00 | 0.00 | 0.00 | 60 | 1011.6 |
| 20260503012504 | 53 | 350 | 1.0 | 3.0 | 0.00 | 0.00 | 0.00 | 59 | 1011.3 |
| 20260503012005 | 53 | 350 | 1.0 | 4.0 | 0.00 | 0.00 | 0.00 | 59 | 1011.4 |
| 20260503011505 | 53 | 350 | 1.0 | 4.0 | 0.00 | 0.00 | 0.00 | 60 | 1011.4 |
| 20260503010505 | 53 | 350 | 2.0 | 6.0 | 0.00 | 0.00 | 0.00 | 60 | 1011.2 |
| 20260503010005 | 53 | 355 | 2.0 | 6.0 | 0.00 | 0.00 | 0.00 | 61 | 1011.3 |
| 20260503005505 | 54 | 355 | 1.0 | 4.0 | 0.00 | 0.00 | 0.00 | 60 | 1011.1 |
| 20260503005004 | 54 | 355 | 1.0 | 5.0 | 0.00 | 0.00 | 0.00 | 62 | 1011.1 |
| 20260503004004 | 54 | 355 | 1.0 | 3.0 | 0.00 | 0.00 | 0.00 | 63 | 1011.1 |
| 20260503003504 | 54 | 355 | 0.0 | 3.0 | 0.00 | 0.00 | 0.00 | 62 | 1011.0 |
| 20260503003004 | 54 | 355 | 0.0 | 2.0 | 0.00 | 0.00 | 0.00 | 61 | 1010.8 |
| 20260503002504 | 54 | 355 | 0.0 | 2.0 | 0.00 | 0.00 | 0.00 | 62 | 1010.7 |
| 20260503002006 | 54 | 355 | 0.0 | 2.0 | 0.00 | 0.00 | 0.00 | 60 | 1010.7 |
| 20260503001504 | 54 | 355 | 0.0 | 2.0 | 0.00 | 0.00 | 0.00 | 61 | 1010.8 |
| 20260503001005 | 54 | 355 | 0.0 | 1.0 | 0.00 | 0.00 | 0.00 | 60 | 1011.0 |
| 20260503000503 | 54 | 355 | 0.0 | 2.0 | 0.00 | 0.00 | 0.00 | 63 | 1011.0 |
| 20260503000007 | 55 | 355 | 0.0 | 2.0 | 0.00 | 0.00 | 0.00 | 61 | 1010.9 |
| 20260502235503 | 55 | 355 | 0.0 | 2.0 | 0.00 | 0.00 | 0.00 | 62 | 1010.7 |
| 20260502235004 | 55 | 355 | 1.0 | 3.0 | 0.00 | 0.00 | 0.00 | 59 | 1010.6 |
| 20260502234502 | 55 | 355 | 1.0 | 3.0 | 0.00 | 0.00 | 0.00 | 60 | 1010.6 |
| 20260502234003 | 56 | 355 | 2.0 | 4.0 | 0.00 | 0.00 | 0.00 | 59 | 1010.5 |
| 20260502233503 | 56 | 355 | 2.0 | 4.0 | 0.00 | 0.00 | 0.00 | 58 | 1010.4 |
| 20260502232502 | 56 | 355 | 2.0 | 4.0 | 0.00 | 0.00 | 0.00 | 57 | 1010.5 |
| 20260502232004 | 56 | 355 | 1.0 | 6.0 | 0.00 | 0.00 | 0.00 | 56 | 1010.6 |
| 20260502231503 | 57 | 355 | 2.0 | 6.0 | 0.00 | 0.00 | 0.00 | 54 | 1010.5 |
| 20260502231006 | 57 | 355 | 2.0 | 5.0 | 0.00 | 0.00 | 0.00 | 54 | 1010.6 |
| 20260502230503 | 57 | 355 | 2.0 | 5.0 | 0.00 | 0.00 | 0.00 | 55 | 1010.6 |
| 20260502225504 | 57 | 355 | 2.0 | 6.0 | 0.00 | 0.00 | 0.00 | 53 | 1010.7 |
| 20260502225004 | 57 | 355 | 2.0 | 6.0 | 0.00 | 0.00 | 0.00 | 53 | 1010.7 |
| 20260502224503 | 57 | 13 | 1.0 | 4.0 | 0.00 | 0.00 | 0.00 | 55 | 1010.7 |
| 20260502223504 | 57 | 14 | 2.0 | 4.0 | 0.00 | 0.00 | 0.00 | 55 | 1010.9 |
| 20260502222504 | 57 | 13 | 2.0 | 9.0 | 0.00 | 0.00 | 0.00 | 52 | 1010.5 |
| 20260502222004 | 58 | 339 | 3.0 | 6.0 | 0.00 | 0.00 | 0.00 | 51 | 1010.5 |
| 20260502221503 | 58 | 325 | 2.0 | 6.0 | 0.00 | 0.00 | 0.00 | 48 | 1010.6 |
| 20260502221004 | 58 | 327 | 2.0 | 5.0 | 0.00 | 0.00 | 0.00 | 48 | 1010.5 |
| 20260502220504 | 58 | 327 | 2.0 | 8.0 | 0.00 | 0.00 | 0.00 | 48 | 1010.7 |
| 20260502220007 | 58 | 327 | 3.0 | 8.0 | 0.00 | 0.00 | 0.00 | 49 | 1010.8 |
| 20260502215504 | 58 | 332 | 3.0 | 6.0 | 0.00 | 0.00 | 0.00 | 47 | 1010.7 |
| 20260502215004 | 58 | 327 | 2.0 | 6.0 | 0.00 | 0.00 | 0.00 | 48 | 1010.7 |
| 20260502214502 | 58 | 355 | 2.0 | 6.0 | 0.00 | 0.00 | 0.00 | 50 | 1010.6 |
| 20260502214005 | 59 | 57 | 2.0 | 5.0 | 0.00 | 0.00 | 0.00 | 50 | 1010.5 |
| 20260502213502 | 59 | 57 | 2.0 | 5.0 | 0.00 | 0.00 | 0.00 | 52 | 1010.5 |
| 20260502213004 | 59 | 57 | 2.0 | 3.0 | 0.00 | 0.00 | 0.00 | 51 | 1010.6 |
| 20260502212504 | 59 | 59 | 2.0 | 5.0 | 0.00 | 0.00 | 0.00 | 49 | 1010.7 |
| 20260502212004 | 58 | 61 | 2.0 | 6.0 | 0.00 | 0.00 | 0.00 | 49 | 1010.6 |
| 20260502211504 | 58 | 316 | 2.0 | 6.0 | 0.00 | 0.00 | 0.00 | 50 | 1010.5 |
| 20260502211003 | 58 | 69 | 2.0 | 5.0 | 0.00 | 0.00 | 0.00 | 54 | 1010.5 |
| 20260502210503 | 58 | 73 | 2.0 | 5.0 | 0.00 | 0.00 | 0.00 | 51 | 1010.4 |
| 20260502205503 | 58 | 24 | 3.0 | 8.0 | 0.00 | 0.00 | 0.00 | 49 | 1010.5 |
| 20260502205004 | 58 | 326 | 2.0 | 8.0 | 0.00 | 0.00 | 0.00 | 47 | 1010.5 |
| 20260502204503 | 58 | 55 | 2.0 | 6.0 | 0.00 | 0.00 | 0.00 | 48 | 1010.4 |
| 20260502204004 | 58 | 62 | 3.0 | 9.0 | 0.00 | 0.00 | 0.00 | 46 | 1010.4 |
| 20260502203504 | 58 | 336 | 4.0 | 9.0 | 0.00 | 0.00 | 0.00 | 48 | 1010.5 |
| 20260502203004 | 59 | 346 | 4.0 | 10.0 | 0.00 | 0.00 | 0.00 | 47 | 1010.5 |
| 20260502202502 | 59 | 5 | 4.0 | 10.0 | 0.00 | 0.00 | 0.00 | 50 | 1010.4 |
| 20260502202005 | 59 | 48 | 3.0 | 7.0 | 0.00 | 0.00 | 0.00 | 53 | 1010.4 |
| 20260502201504 | 59 | 323 | 4.0 | 12.0 | 0.00 | 0.00 | 0.00 | 55 | 1010.4 |
| 20260502201003 | 60 | 348 | 5.0 | 12.0 | 0.00 | 0.00 | 0.00 | 54 | 1010.6 |
| 20260502200502 | 60 | 60 | 4.0 | 9.0 | 0.00 | 0.00 | 0.00 | 59 | 1010.5 |
| 20260502200005 | 59 | 88 | 4.0 | 13.0 | 0.00 | 0.00 | 0.00 | 60 | 1010.5 |
| 20260502195504 | 58 | 17 | 4.0 | 10.0 | 0.00 | 0.00 | 0.00 | 58 | 1010.7 |
| 20260502194503 | 60 | 69 | 3.0 | 9.0 | 0.00 | 0.00 | 0.00 | 60 | 1010.6 |
| 20260502194005 | 60 | 90 | 4.0 | 10.0 | 0.00 | 0.00 | 0.00 | 59 | 1010.7 |
| 20260502193503 | 60 | 329 | 5.0 | 10.0 | 0.00 | 0.00 | 0.00 | 58 | 1010.8 |
| 20260502193004 | 60 | 331 | 4.0 | 10.0 | 0.00 | 0.00 | 0.00 | 57 | 1010.9 |
| 20260502192503 | 60 | 325 | 3.0 | 9.0 | 0.00 | 0.00 | 0.00 | 60 | 1011.0 |
| 20260502192004 | 60 | 80 | 5.0 | 10.0 | 0.00 | 0.00 | 0.00 | 55 | 1011.1 |
| 20260502191503 | 60 | 57 | 6.0 | 12.0 | 0.00 | 0.00 | 0.00 | 58 | 1011.1 |
| 20260502191003 | 59 | 319 | 4.0 | 10.0 | 0.00 | 0.00 | 0.00 | 57 | 1011.1 |
| 20260502190504 | 60 | 342 | 5.0 | 10.0 | 0.00 | 0.00 | 0.00 | 56 | 1011.0 |
| 20260502190004 | 60 | 9 | 4.0 | 12.0 | 0.00 | 0.00 | 0.00 | 61 | 1011.4 |
| 20260502185502 | 60 | 342 | 4.0 | 12.0 | 0.00 | 0.00 | 0.00 | 65 | 1011.4 |
| 20260502184502 | 59 | 328 | 5.0 | 11.0 | 0.00 | 0.00 | 0.00 | 63 | 1011.7 |
| 20260502184002 | 58 | 342 | 6.0 | 12.0 | 0.00 | 0.00 | 0.00 | 63 | 1011.8 |
| 20260502183002 | 57 | 326 | 5.0 | 10.0 | 0.00 | 0.00 | 0.00 | 63 | 1011.8 |
| 20260502182502 | 57 | 340 | 5.0 | 10.0 | 0.00 | 0.00 | 0.00 | 63 | 1011.9 |
| 20260502181002 | 58 | 325 | 4.0 | 11.0 | 0.00 | 0.00 | 0.00 | 63 | 1012.1 |
| 20260502180501 | 57 | 40 | 5.0 | 12.0 | 0.00 | 0.00 | 0.00 | 60 | 1012.1 |
| 20260502170501 | 58 | 5 | 4.0 | 11.0 | 0.00 | 0.00 | 0.00 | 62 | 1012.1 |
| 20260502164004 | 57 | 32 | 3.0 | 8.0 | 0.00 | 0.00 | 0.00 | 65 | 1012.5 |
| 20260502163504 | 57 | 348 | 3.0 | 8.0 | 0.00 | 0.00 | 0.00 | 63 | 1012.5 |
| 20260502163006 | 57 | 336 | 4.0 | 9.0 | 0.00 | 0.00 | 0.00 | 63 | 1012.5 |
| 20260502162504 | 56 | 338 | 3.0 | 9.0 | 0.00 | 0.00 | 0.00 | 61 | 1012.6 |
| 20260502162003 | 57 | 32 | 3.0 | 7.0 | 0.00 | 0.00 | 0.00 | 63 | 1012.6 |
| 20260502161502 | 57 | 347 | 3.0 | 8.0 | 0.00 | 0.00 | 0.00 | 65 | 1012.7 |
| 20260502160502 | 57 | 325 | 3.0 | 8.0 | 0.00 | 0.00 | 0.00 | 66 | 1012.8 |
| 20260502152003 | 56 | 321 | 4.0 | 11.0 | 0.00 | 0.00 | 0.00 | 63 | 1012.8 |
| 20260502151502 | 57 | 21 | 4.0 | 11.0 | 0.00 | 0.00 | 0.00 | 62 | 1012.7 |
| 20260502151005 | 56 | 41 | 5.0 | 13.0 | 0.00 | 0.00 | 0.00 | 65 | 1012.7 |
| 20260502150503 | 55 | 355 | 6.0 | 13.0 | 0.00 | 0.00 | 0.00 | 64 | 1012.7 |
| 20260502130502 | 54 | 326 | 5.0 | 11.0 | 0.00 | 0.00 | 0.00 | 71 | 1012.9 |
| 20260502123004 | 52 | 346 | 4.0 | 9.0 | 0.00 | 0.00 | 0.00 | 78 | 1012.9 |
| 20260502122503 | 52 | 332 | 4.0 | 8.0 | 0.00 | 0.00 | 0.00 | 80 | 1013.0 |
| 20260502122002 | 52 | 340 | 3.0 | 6.0 | 0.00 | 0.00 | 0.00 | 80 | 1013.0 |
| 20260502121503 | 52 | 348 | 3.0 | 9.0 | 0.00 | 0.00 | 0.00 | 79 | 1012.9 |
| 20260502121002 | 52 | 327 | 3.0 | 8.0 | 0.00 | 0.00 | 0.00 | 80 | 1013.1 |
| 20260502120502 | 52 | 313 | 3.0 | 8.0 | 0.00 | 0.00 | 0.00 | 80 | 1013.2 |
| 20260502115501 | 51 | 302 | 2.0 | 5.0 | 0.00 | 0.00 | 0.00 | 84 | 1013.2 |
| 20260502115002 | 51 | 301 | 2.0 | 5.0 | 0.00 | 0.00 | 0.00 | 84 | 1013.1 |
| 20260502114001 | 50 | 159 | 1.0 | 5.0 | 0.00 | 0.00 | 0.00 | 85 | 1012.9 |
| 20260502113501 | 50 | 162 | 1.0 | 3.0 | 0.00 | 0.00 | 0.00 | 86 | 1012.9 |
| 20260502113002 | 50 | 162 | 1.0 | 3.0 | 0.00 | 0.00 | 0.00 | 86 | 1013.0 |
| 20260502112501 | 50 | 162 | 1.0 | 5.0 | 0.00 | 0.00 | 0.00 | 86 | 1013.0 |
| 20260502111502 | 49 | 161 | 0.0 | 2.0 | 0.00 | 0.00 | 0.00 | 87 | 1013.0 |
| 20260502111002 | 49 | 161 | 1.0 | 5.0 | 0.00 | 0.00 | 0.00 | 87 | 1013.0 |
| 20260502110501 | 49 | 161 | 1.0 | 5.0 | 0.00 | 0.00 | 0.00 | 88 | 1012.9 |
| 20260502110005 | 49 | 161 | 1.0 | 2.0 | 0.00 | 0.00 | 0.00 | 88 | 1012.8 |
| 20260502105500 | 49 | 161 | 1.0 | 2.0 | 0.00 | 0.00 | 0.00 | 88 | 1012.7 |
| 20260502105004 | 48 | 161 | 1.0 | 2.0 | 0.00 | 0.00 | 0.00 | 88 | 1012.7 |
| 20260502104501 | 48 | 161 | 1.0 | 2.0 | 0.00 | 0.00 | 0.00 | 89 | 1012.6 |
| 20260502103501 | 48 | 161 | 0.0 | 2.0 | 0.00 | 0.00 | 0.00 | 89 | 1012.5 |
| 20260502103001 | 48 | 161 | 0.0 | 2.0 | 0.00 | 0.00 | 0.00 | 89 | 1012.5 |
| 20260502102500 | 48 | 161 | 1.0 | 2.0 | 0.00 | 0.00 | 0.00 | 89 | 1012.5 |
| 20260502102001 | 48 | 161 | 1.0 | 3.0 | 0.00 | 0.00 | 0.00 | 89 | 1012.4 |
| 20260502101501 | 47 | 161 | 1.0 | 3.0 | 0.00 | 0.00 | 0.00 | 89 | 1012.3 |
| 20260502101002 | 47 | 161 | 0.0 | 4.0 | 0.00 | 0.00 | 0.00 | 89 | 1012.3 |
| 20260502100500 | 47 | 161 | 0.0 | 2.0 | 0.00 | 0.00 | 0.00 | 89 | 1012.2 |
| 20260502091500 | 46 | 162 | 1.0 | 3.0 | 0.00 | 0.00 | 0.00 | 88 | 1012.0 |
| 20260502091001 | 46 | 162 | 0.0 | 2.0 | 0.00 | 0.00 | 0.00 | 88 | 1012.0 |
| 20260502090501 | 46 | 162 | 1.0 | 2.0 | 0.00 | 0.00 | 0.00 | 88 | 1012.0 |
| 20260502071001 | 48 | 162 | 0.0 | 3.0 | 0.00 | 0.00 | 0.00 | 86 | 1011.8 |
| 20260502070500 | 47 | 162 | 0.0 | 2.0 | 0.00 | 0.00 | 0.00 | 87 | 1012.0 |
| 20260502070001 | 47 | 162 | 0.0 | 2.0 | 0.00 | 0.00 | 0.00 | 87 | 1012.1 |
| 20260502065002 | 47 | 162 | 0.0 | 2.0 | 0.00 | 0.00 | 0.00 | 86 | 1012.2 |
| 20260502064001 | 48 | 162 | 1.0 | 3.0 | 0.00 | 0.00 | 0.00 | 86 | 1012.2 |
| 20260502063000 | 48 | 162 | 1.0 | 3.0 | 0.00 | 0.00 | 0.00 | 86 | 1012.2 |
| 20260502062500 | 48 | 162 | 0.0 | 3.0 | 0.00 | 0.00 | 0.00 | 86 | 1012.3 |
| 20260502062001 | 48 | 162 | 0.0 | 3.0 | 0.00 | 0.00 | 0.00 | 86 | 1012.3 |
| 20260502061500 | 48 | 162 | 1.0 | 5.0 | 0.00 | 0.00 | 0.00 | 86 | 1012.2 |
| 20260502061001 | 48 | 159 | 1.0 | 3.0 | 0.00 | 0.00 | 0.00 | 85 | 1012.3 |
| 20260502060501 | 48 | 159 | 1.0 | 5.0 | 0.00 | 0.00 | 0.00 | 85 | 1012.4 |
| 20260502060002 | 48 | 159 | 1.0 | 5.0 | 0.00 | 0.00 | 0.00 | 85 | 1012.5 |
| 20260502055500 | 49 | 158 | 1.0 | 6.0 | 0.00 | 0.00 | 0.00 | 85 | 1012.6 |
| 20260502055000 | 49 | 156 | 2.0 | 6.0 | 0.00 | 0.00 | 0.00 | 85 | 1012.6 |
| 20260502054459 | 48 | 147 | 1.0 | 5.0 | 0.00 | 0.00 | 0.00 | 85 | 1012.6 |
| 20260502054000 | 48 | 192 | 1.0 | 4.0 | 0.00 | 0.00 | 0.00 | 86 | 1012.6 |
| 20260502053459 | 48 | 186 | 1.0 | 4.0 | 0.00 | 0.00 | 0.00 | 86 | 1012.7 |
| 20260502053000 | 48 | 199 | 1.0 | 3.0 | 0.00 | 0.00 | 0.00 | 86 | 1012.7 |
| 20260502052001 | 48 | 199 | 1.0 | 4.0 | 0.00 | 0.00 | 0.00 | 85 | 1012.7 |
| 20260502051500 | 48 | 198 | 1.0 | 4.0 | 0.00 | 0.00 | 0.00 | 85 | 1012.8 |
| 20260502050959 | 48 | 198 | 1.0 | 3.0 | 0.00 | 0.00 | 0.00 | 85 | 1012.8 |
| 20260502050459 | 49 | 198 | 1.0 | 4.0 | 0.00 | 0.00 | 0.00 | 85 | 1012.9 |
| 20260502050008 | 48 | 198 | 1.0 | 4.0 | 0.00 | 0.00 | 0.00 | 85 | 1013.0 |
| 20260502045506 | 48 | 197 | 1.0 | 2.0 | 0.00 | 0.00 | 0.00 | 84 | 1013.1 |
| 20260502045007 | 49 | 197 | 1.0 | 4.0 | 0.00 | 0.00 | 0.00 | 84 | 1013.0 |
| 20260502044505 | 49 | 197 | 2.0 | 4.0 | 0.00 | 0.00 | 0.00 | 84 | 1013.1 |
| 20260502044006 | 49 | 199 | 2.0 | 4.0 | 0.00 | 0.00 | 0.00 | 84 | 1013.1 |
| 20260502043506 | 49 | 199 | 1.0 | 4.0 | 0.00 | 0.00 | 0.00 | 84 | 1013.1 |
| 20260502043007 | 49 | 198 | 1.0 | 4.0 | 0.00 | 0.00 | 0.00 | 84 | 1013.0 |
| 20260502042505 | 49 | 198 | 1.0 | 5.0 | 0.00 | 0.00 | 0.00 | 84 | 1013.1 |
| 20260502042006 | 49 | 198 | 1.0 | 5.0 | 0.00 | 0.00 | 0.00 | 84 | 1012.9 |
| 20260502041505 | 49 | 198 | 1.0 | 5.0 | 0.00 | 0.00 | 0.00 | 84 | 1012.8 |